Regional Weather Roundup
Issued by NWS

Home | Current Version | Previous Version | Text Only | Print | Product List | Glossary On
Versions: 1 2 3 4 5 6 7 8 9 10 11 12 13 14 15 16 17 18 19 20 21 22 23 24 25 26 27 28 29 30 31 32 33 34 35 36 37 38 39 40 41 42 43 44 45 46 47 48 49 50
063
ASUS43 KBIS 030302
RWRND

NORTH DAKOTA REGIONAL WEATHER ROUNDUP
NATIONAL WEATHER SERVICE BISMARCK ND
900 PM CST FRI DEC 02 2016

NOTE: "FAIR" INDICATES FEW OR NO CLOUDS BELOW 12,000 FEET WITH NO
SIGNIFICANT WEATHER AND/OR OBSTRUCTIONS TO VISIBILITY.


NDZ001>003-009>011-017-030400-
NORTHWEST NORTH DAKOTA

CITY           SKY/WX    TMP DP  RH WIND       PRES   REMARKS
WILLISTON      CLEAR     25  22  88 S3        30.07F
MINOT          CLOUDY    29  26  89 S9        30.12F
MINOT AFB      CLOUDY    28  25  88 S9        30.11F WCI  19
$$

NDZ018>021-031>035-040>046-030400-
SOUTHWEST NORTH DAKOTA

CITY           SKY/WX    TMP DP  RH WIND       PRES   REMARKS
BISMARCK       CLEAR     17  14  88 SE7       30.20F WCI   8
DICKINSON      CLEAR     18  17  96 S9        30.08F WCI   7
GARRISON         N/A     27  24  89 S7        30.13F WCI  19
HETTINGER ARPT CLEAR     22  21  96 SE5       30.14F WCI  16
$$

NDZ004>008-012>016-024-026-027-054-030400-
NORTHEAST NORTH DAKOTA

CITY           SKY/WX    TMP DP  RH WIND       PRES   REMARKS
GRAND FORKS    CLOUDY    31  23  72 SW6       30.25F
GRND FRKS AFB  CLOUDY    30  21  69 SW3       30.25F
DEVILS LAKE    FLURRIES  26  20  77 S9        30.22F WCI  17
$$

NDZ022-023-025-028>030-036>039-047>053-030400-
SOUTHEAST NORTH DAKOTA

CITY           SKY/WX    TMP DP  RH WIND       PRES   REMARKS
FARGO          CLOUDY    29  19  66 SW3       30.29F
JAMESTOWN      CLOUDY    23  17  78 S6        30.24F WCI  16
$$





USA.gov is the U.S. government's official web portal to all federal, state and local government web resources and services.